Location: *
(33.8649°S, 62.1526°E)
Time: 08:16:11
(UTC+00:00)

Cosmos 44 Rocket - Pass Details

Date: 02 December 2021
Orbit: 648 x 741 km, 65.1° (Epoch: 23 January)

Event Time Altitude Azimuth Distance (km) Brightness Sun altitude
Exits shadow 18:00:08 20° 136° (SE) 1,503 5.2 -29.1°
Drops below altitude 10° 18:01:42 10° 142° (SE) 2,086 6.0 -29.3°
Sets 18:04:05 0° 146° (SE) 3,014 7.0 -29.5°
